View from above orbital plane
|
View from above satellite
|
Ground track
|
The orbit data is extracted from the following two-line orbital elements,
1 20046U 89042B 21102.41073125 .00000091 00000-0 73736-4 0 9994
2 20046 82.9391 343.3271 0043213 115.2129 245.3519 13.78221324601226
Epoch (UTC): | 12 April 2021 09:51:27 |
Eccentricity: | 0.0043213 |
inclination: | 82.9391° |
perigee height: | 938 km |
apogee height: | 1002 km |
right ascension of ascending node: | 343.3271° |
argument of perigee: | 115.2129° |
revolutions per day: | 13.78221324 |
mean anomaly at epoch: | 245.3519° |
orbit number at epoch: | 60122 |
The dashed part of the orbit path shows where the satellite is in the earth's shadow,
|
|